Regional Weather Roundup
Issued by NWS

Home | Current Version | Previous Version | Graphics & Text | Print | Product List | Glossary On
Versions: 1 2 3 4 5 6 7 8 9 10 11 12 13 14 15 16 17 18 19 20 21 22 23 24 25 26 27 28 29 30 31 32 33 34 35 36 37 38 39 40 41 42 43 44 45 46 47 48 49 50
000
ASUS43 KLSX 101807
RWRMO

WEATHER SUMMARY FOR MISSOURI
NATIONAL WEATHER SERVICE SPRINGFIELD MO
1200 PM CST WED FEB 10 2016

NOTE: "FAIR" INDICATES FEW OR NO CLOUDS BELOW 12,000 FEET WITH NO
       SIGNIFICANT WEATHER AND/OR OBSTRUCTIONS TO VISIBILITY.
       CURRENT SKY AND/OR WEATHER CONDITIONS ARE NOT AVAILABLE FOR
       CHILLICOTHE AND FARMINGTON.

MOZ001>031-035>038-043-044-053-054-101900-
...NORTHERN AND WESTERN MISSOURI...

CITY           SKY/WX    TMP DP  RH WIND       PRES   REMARKS
KANSAS CTY INT PTSUNNY   38  17  42 S21       30.01F WCI  28
6HR MIN TEMP:  23; 6HR MAX TEMP:  38; 6HR PCP: TRACE;

KANSAS C DTWN  MOSUNNY   39  15  37 S17       30.03F WCI  30
6HR MIN TEMP:  26; 6HR MAX TEMP:  39;

LEE`S SUMMIT   SUNNY     35  14  42 S17G25    30.04F WCI  25
6HR MIN TEMP:  23; 6HR MAX TEMP:  36;

ST JOSEPH      CLOUDY    37  16  42 SW18      29.99F WCI  27
6HR MIN TEMP:  24; 6HR MAX TEMP:  37; 6HR PCP: TRACE;

CHILLICOTHE      N/A     29  21  72 SE9       30.07F WCI  20
6HR MIN TEMP:  18; 6HR MAX TEMP:  29; 6HR PCP:  0.01;

KIRKSVILLE     LGT SNOW  20  15  81 SE6       30.09F WCI  12
6HR MIN TEMP:  13; 6HR MAX TEMP:  20; 6HR PCP:  0.06;


$$
MOZ066>068-077>081-088>096-101>105-101900-
...SOUTHWEST MISSOURI...

CITY           SKY/WX    TMP DP  RH WIND       PRES   REMARKS
SPRINGFIELD    SUNNY     37  11  34 S10       30.11F WCI  30
6HR MIN TEMP:  18; 6HR MAX TEMP:  37;

JOPLIN         SUNNY     40  15  36 SW22G32   30.10F WCI  30
6HR MIN TEMP:  19; 6HR MAX TEMP:  41;


$$
MOZ032>034-039>042-045>050-055>058-069>072-101900-
...CENTRAL MISSOURI...

CITY           SKY/WX    TMP DP  RH WIND       PRES   REMARKS
COLUMBIA       LGT SNOW  21  18  88 S6        30.12F VSB 1   WCI  13
6HR MIN TEMP:  15; 6HR MAX TEMP:  21; 6HR PCP:  0.05;

JEFFERSON CITY LGT SNOW  22  19  89 S3        30.16F VSB 1
6HR MIN TEMP:  14; 6HR MAX TEMP:  22; 6HR PCP: TRACE;

ROLLA          CLOUDY    20  17  88 SW7       30.12F FOG     WCI  11
6HR MIN TEMP:  13; 6HR MAX TEMP:  20;

SEDALIA        SUNNY     33  14  45 S12       30.09F WCI  24
6HR MIN TEMP:  19; 6HR MAX TEMP:  34; 6HR PCP: TRACE;

WHITEMAN AFB   PTSUNNY   33  14  44 SW13      30.07F WCI  24
WARRENSBURG    CLOUDY    34  14  44 S14       30.07F WCI  24
OSAGE BEACH    MOSUNNY   30  12  47 S3        30.13F

$$
MOZ051-052-059>065-101900-
...EAST CENTRAL MISSOURI...

CITY           SKY/WX    TMP DP  RH WIND       PRES   REMARKS
ST LOUIS INTL  CLOUDY    24   6  46 W9        30.17S WCI  14
6HR MIN TEMP:  15; 6HR MAX TEMP:  24;

SPIRIT OF STL  CLOUDY    23   9  55 W8        30.18S WCI  14
6HR MIN TEMP:  11; 6HR MAX TEMP:  23;

ST CHARLES     CLOUDY    21   7  54 W10       30.18S WCI  10
6HR MIN TEMP:  14; 6HR MAX TEMP:  22;


$$
MOZ072>076-082>087-097>100-106>115-101900-
...SOUTH CENTRAL AND SOUTHEAST MISSOURI...

CITY           SKY/WX    TMP DP  RH WIND       PRES   REMARKS
CAPE GIRARDEAU CLOUDY    26   5  40 W8        30.22F WCI  18
6HR MIN TEMP:  12; 6HR MAX TEMP:  26;

FARMINGTON     FLURRIES  23   8  52 W3        30.16F
POPLAR BLUFF   CLOUDY    29   7  39 VRB7      30.21F WCI  22
6HR MIN TEMP:  18; 6HR MAX TEMP:  29;

WEST PLAINS    PTSUNNY   32  10  40 S6        30.16F WCI  26
6HR MIN TEMP:  16; 6HR MAX TEMP:  32;


$$


USA.gov is the U.S. government's official web portal to all federal, state and local government web resources and services.